Location: Centerville
(32.8776°N, 96.6203°W)
Time: 13:22:17
(UTC+00:00)

CBERS-1 - Pass Details

Date: 17 June 2021
Orbit: 770 x 776 km, 98.7° (Epoch: 30 July)

Event Time Altitude Azimuth Distance (km) Brightness Sun altitude
Rises 08:48:24 0° 14° (NNE) 3,259 8.4 -24.5°
Reaches altitude 10° 08:50:43 10° 16° (NNE) 2,328 7.4 -24.2°
Maximum altitude 08:55:52 77° 103° (ESE) 798 4.0 -23.5°
Enters shadow 08:57:05 52° 175° (S) 954 4.1 -23.4°
